Weather in Khingansk

Russia / Jewish Autonomous Oblast     49°07′31″N   131°11′50″E
temp.,
°C
wind,
m/s
gust,
m/s
humid.,
%
clouds,
%
prec.,
mm/h
press.,
hPa
HPBL,
m
14 may, fri
fri1401:00+4wsw11965 0.0 100910
04:00+3ssw11965 0.0 101010
07:00+6se118943 0.0 101024
10:00+13ssw1363100 0.0 1009528
13:00+17s3638100 0.0 10081500
16:00+18ssw3931100 0.0 10062699
19:00+16s51144100 0.0 10041255
22:00+14sse71441100 0.0 1003963
15 may, sat
sat1501:00+12sse61657100 0.1 1000923
04:00+9sse51695100 5.7 9961035
07:00+9wsw2699100 8.5 996526
10:00+6wnw41096100 9.0 999696
13:00+10w697290 0.4 10001255
16:00+10w6127723 1.4 10001552
19:00+9wnw614785 1.1 10001656
22:00+7w613795 1.1 10021065
16 may, sun
sun1601:00+7w6147692 0.0 10021319
04:00+6w614815 0.0 1003971
07:00+6wnw513785 0.0 1003943
10:00+11wnw613551 0.0 10021373
13:00+15wnw613362 0.0 10012411
16:00+18wnw6122857 0.0 10003348
19:00+16wsw493996 0.0 9981535
22:00+10s2258100 0.1 99926
17 may, mon
mon1701:00+10w3126199 0.0 999400
04:00+6wsw311780 0.0 1001232
07:00+8ssw26664 0.0 1001166
10:00+15w594218 0.0 1000915
13:00+18w510365 0.0 10002089
16:00+18wnw58335 0.0 10002190
19:00+16nw36445 0.0 10001315
22:00+10ne11660 0.0 100210
18 may, tue
tue1801:00+8ese22688 0.0 100214
04:00+8se22695 0.0 100227
07:00+11se396387 0.0 1000236
10:00+18ssw51041100 0.0 9991132
13:00+22sw473294 0.0 9971735
16:00+24wsw51026100 0.0 9953272
19:00+16nw41164100 0.1 998692
22:00+11w118177 0.3 99911